Location: Battlefield Observatory
(36.7579°N, 76.2613°W)
Time: 13:44:03
(UTC-04:00)

ISS - Visible Passes

Search period start: 23 June 2018 00:00
Search period end: 03 July 2018 00:00
Orbit: 403 x 408 km, 51.6° (Epoch: 24 June)

Date Brightness Start Highest point End Pass type
(mag) Time Alt. Az. Time Alt. Az. Time Alt. Az.
01 Jul -1.9 04:28:27 14° S 04:30:15 22° SE 04:32:52 10° ENE visible
02 Jul -1.1 03:38:27 11° SE 03:38:27 11° SE 03:39:15 10° ESE visible
02 Jul -3.6 05:11:08 10° WSW 05:14:24 61° NW 05:17:40 10° NE visible
